TimeCST,TemperatureF,Dew PointF,Humidity,Sea Level PressureIn,VisibilityMPH,Wind Direction,Wind SpeedMPH,Gust SpeedMPH,PrecipitationIn,Events,Conditions,WindDirDegrees,DateUTC
12:15 AM,37.4,30.2,75,30.18,10.0,NNE,4.6,-,N/A,,Clear,30,2012-12-06 06:15:00
12:35 AM,37.4,30.2,75,30.17,10.0,NE,4.6,-,N/A,,Clear,40,2012-12-06 06:35:00
12:55 AM,37.4,30.2,75,30.16,10.0,ENE,3.5,-,N/A,,Clear,60,2012-12-06 06:55:00
1:15 AM,35.6,28.4,75,30.17,10.0,ENE,4.6,-,N/A,,Clear,60,2012-12-06 07:15:00
1:35 AM,35.6,30.2,81,30.17,10.0,East,3.5,-,N/A,,Clear,90,2012-12-06 07:35:00
1:55 AM,35.6,30.2,81,30.17,10.0,East,5.8,-,N/A,,Clear,80,2012-12-06 07:55:00
2:15 AM,37.4,30.2,75,30.17,10.0,NE,3.5,-,N/A,,Clear,40,2012-12-06 08:15:00
2:35 AM,37.4,30.2,75,30.17,10.0,NE,3.5,-,N/A,,Clear,40,2012-12-06 08:35:00
2:55 AM,35.6,28.4,75,30.16,10.0,ENE,3.5,-,N/A,,Clear,70,2012-12-06 08:55:00
3:15 AM,35.6,30.2,81,30.16,10.0,NNE,4.6,-,N/A,,Clear,30,2012-12-06 09:15:00
3:35 AM,35.6,28.4,75,30.16,10.0,NNE,5.8,-,N/A,,Clear,20,2012-12-06 09:35:00
3:55 AM,33.8,30.2,87,30.15,10.0,NNE,4.6,-,N/A,,Clear,30,2012-12-06 09:55:00
4:15 AM,33.8,30.2,87,30.14,10.0,NE,5.8,-,N/A,,Clear,40,2012-12-06 10:15:00
4:35 AM,35.6,30.2,81,30.14,10.0,NNE,5.8,-,N/A,,Clear,30,2012-12-06 10:35:00
4:55 AM,33.8,28.4,81,30.13,10.0,ENE,4.6,-,N/A,,Clear,60,2012-12-06 10:55:00
5:15 AM,35.6,30.2,81,30.13,10.0,NE,3.5,-,N/A,,Clear,50,2012-12-06 11:15:00
5:35 AM,35.6,30.2,81,30.13,10.0,East,4.6,-,N/A,,Clear,80,2012-12-06 11:35:00
6:15 AM,35.6,30.2,81,30.13,10.0,East,4.6,-,N/A,,Clear,80,2012-12-06 12:15:00
6:35 AM,35.6,30.2,81,30.13,10.0,East,3.5,-,N/A,,Clear,90,2012-12-06 12:35:00
6:55 AM,35.6,30.2,81,30.13,10.0,ENE,3.5,-,N/A,,Clear,70,2012-12-06 12:55:00
7:15 AM,35.6,30.2,81,30.12,10.0,ENE,4.6,-,N/A,,Clear,70,2012-12-06 13:15:00
7:35 AM,35.6,30.2,81,30.12,10.0,NE,4.6,-,N/A,,Partly Cloudy,50,2012-12-06 13:35:00
7:55 AM,35.6,30.2,81,30.12,10.0,ENE,4.6,-,N/A,,Mostly Cloudy,60,2012-12-06 13:55:00
8:15 AM,39.2,33.8,81,30.12,10.0,East,4.6,-,N/A,,Overcast,80,2012-12-06 14:15:00
8:35 AM,39.2,33.8,81,30.11,10.0,East,6.9,-,N/A,,Overcast,90,2012-12-06 14:35:00
8:55 AM,39.2,35.6,87,30.11,10.0,East,5.8,-,N/A,,Overcast,90,2012-12-06 14:55:00
9:15 AM,41.0,35.6,81,30.11,10.0,East,4.6,-,N/A,,Overcast,100,2012-12-06 15:15:00
9:35 AM,42.8,35.6,76,30.11,10.0,East,5.8,-,N/A,,Overcast,100,2012-12-06 15:35:00
9:55 AM,42.8,35.6,76,30.10,10.0,ESE,5.8,-,N/A,,Mostly Cloudy,120,2012-12-06 15:55:00
10:15 AM,42.8,35.6,76,30.10,10.0,ESE,3.5,-,N/A,,Mostly Cloudy,110,2012-12-06 16:15:00
10:35 AM,44.6,35.6,71,30.10,10.0,SSE,3.5,-,N/A,,Overcast,150,2012-12-06 16:35:00
10:55 AM,44.6,35.6,71,30.09,10.0,Calm,Calm,-,N/A,,Overcast,0,2012-12-06 16:55:00
11:15 AM,44.6,37.4,76,30.07,10.0,Calm,Calm,-,N/A,,Overcast,0,2012-12-06 17:15:00
11:35 AM,46.4,37.4,71,30.06,10.0,Calm,Calm,-,N/A,,Overcast,0,2012-12-06 17:35:00
11:55 AM,46.4,37.4,71,30.05,10.0,Calm,Calm,-,N/A,,Overcast,0,2012-12-06 17:55:00
12:15 PM,48.2,37.4,66,30.05,10.0,Calm,Calm,-,N/A,,Overcast,0,2012-12-06 18:15:00
12:35 PM,48.2,39.2,71,30.03,10.0,East,3.5,-,N/A,,Overcast,100,2012-12-06 18:35:00
12:55 PM,48.2,39.2,71,30.01,10.0,East,3.5,-,N/A,,Mostly Cloudy,90,2012-12-06 18:55:00
1:15 PM,50.0,39.2,66,30.01,10.0,SE,4.6,-,N/A,,Overcast,130,2012-12-06 19:15:00
1:35 PM,51.8,39.2,62,30.01,10.0,South,6.9,-,N/A,,Overcast,170,2012-12-06 19:35:00
1:55 PM,51.8,39.2,62,30.00,10.0,SSE,3.5,-,N/A,,Overcast,150,2012-12-06 19:55:00
2:15 PM,51.8,39.2,62,30.00,10.0,SE,4.6,-,N/A,,Overcast,130,2012-12-06 20:15:00
2:35 PM,51.8,39.2,62,30.00,10.0,SE,3.5,-,N/A,,Overcast,140,2012-12-06 20:35:00
2:55 PM,51.8,39.2,62,30.00,10.0,ESE,4.6,-,N/A,,Overcast,120,2012-12-06 20:55:00
3:15 PM,51.8,39.2,62,29.99,10.0,Calm,Calm,-,N/A,,Overcast,0,2012-12-06 21:15:00
3:35 PM,51.8,39.2,62,29.99,10.0,SE,3.5,-,N/A,,Overcast,130,2012-12-06 21:35:00
4:15 PM,50.0,39.2,66,29.99,10.0,East,5.8,-,N/A,,Overcast,90,2012-12-06 22:15:00
4:35 PM,48.2,41.0,76,30.00,10.0,Calm,Calm,-,N/A,,Overcast,0,2012-12-06 22:35:00
4:55 PM,48.2,41.0,76,29.99,10.0,East,3.5,-,N/A,,Overcast,100,2012-12-06 22:55:00
5:15 PM,48.2,41.0,76,29.98,10.0,East,3.5,-,N/A,,Overcast,80,2012-12-06 23:15:00
5:35 PM,48.2,41.0,76,29.99,10.0,Calm,Calm,-,N/A,,Overcast,0,2012-12-06 23:35:00
5:55 PM,48.2,41.0,76,29.97,10.0,ESE,5.8,-,N/A,,Overcast,110,2012-12-06 23:55:00
6:15 PM,48.2,41.0,76,29.98,10.0,Calm,Calm,-,N/A,,Overcast,0,2012-12-07 00:15:00
6:35 PM,48.2,41.0,76,29.98,10.0,Calm,Calm,-,N/A,,Overcast,0,2012-12-07 00:35:00
6:55 PM,48.2,41.0,76,29.99,10.0,Calm,Calm,-,N/A,,Overcast,0,2012-12-07 00:55:00
7:15 PM,48.2,42.8,82,29.98,10.0,Calm,Calm,-,N/A,,Overcast,0,2012-12-07 01:15:00
7:35 PM,48.2,42.8,82,29.99,10.0,East,3.5,-,N/A,,Overcast,80,2012-12-07 01:35:00
7:55 PM,48.2,42.8,82,29.99,10.0,Calm,Calm,-,N/A,,Overcast,0,2012-12-07 01:55:00
8:35 PM,48.2,41.0,76,29.98,10.0,Calm,Calm,-,N/A,,Scattered Clouds,0,2012-12-07 02:35:00
8:55 PM,48.2,42.8,82,29.99,10.0,Calm,Calm,-,N/A,,Mostly Cloudy,0,2012-12-07 02:55:00
9:15 PM,48.2,42.8,82,29.98,10.0,Calm,Calm,-,N/A,,Overcast,0,2012-12-07 03:15:00
9:35 PM,46.4,42.8,87,29.98,10.0,Calm,Calm,-,N/A,,Overcast,0,2012-12-07 03:35:00
9:55 PM,46.4,41.0,81,29.98,10.0,Calm,Calm,-,N/A,,Mostly Cloudy,0,2012-12-07 03:55:00
10:15 PM,48.2,42.8,82,29.98,10.0,Calm,Calm,-,N/A,,Mostly Cloudy,0,2012-12-07 04:15:00
10:35 PM,48.2,42.8,82,29.98,10.0,Calm,Calm,-,N/A,,Mostly Cloudy,0,2012-12-07 04:35:00
10:55 PM,46.4,42.8,87,29.98,10.0,Calm,Calm,-,N/A,,Mostly Cloudy,0,2012-12-07 04:55:00
11:15 PM,44.6,41.0,87,29.98,10.0,Calm,Calm,-,N/A,,Scattered Clouds,0,2012-12-07 05:15:00
11:35 PM,44.6,42.8,93,29.98,10.0,Calm,Calm,-,N/A,,Mostly Cloudy,0,2012-12-07 05:35:00
11:55 PM,44.6,42.8,93,29.97,10.0,Calm,Calm,-,N/A,,Overcast,0,2012-12-07 05:55:00